Tucson, AZ

5:01 AM MST on August 17, 2019 (GMT -0700)
Tucson International

Weather History for KTUS - May, 2019

Change the Weather History Date:

Thursday, May 2, 2019

  Actual Average Record
Temperature  
Mean Temperature 72 °F 72 °F  
Max Temperature 88 °F 87 °F 102 °F (1947)
Min Temperature 55 °F 57 °F 39 °F (1967)
Degree Days  
Heating Degree Days 0 1  
Month to date heating degree days 0 2  
Since 1 July heating degree days 1408 1508  
Cooling Degree Days 7 7  
Month to date cooling degree days 12 14  
Year to date cooling degree days 192 168  
Growing Degree Days 22 (Base 50)    
Moisture  
Dew Point 29 °F    
Average Humidity 20    
Maximum Humidity 40    
Minimum Humidity 6    
Precipitation  
Precipitation 0.00 in 0.00 in 0.17 in (1904)
Month to date precipitation 0.00 0.01  
Year to date precipitation 3.81 2.85  
Sea Level Pressure  
Sea Level Pressure 29.84 in    
Wind  
Wind Speed 5 mph (SSW)    
Max Wind Speed 16 mph    
Max Gust Speed 23 mph    
Visibility 10 miles    
Events      
T = Trace of Precipitation, MM = Missing Value Source: NWS Daily Summary

Daily Weather History Graph

Daily Weather History Graph

Search for Another Location

Airport or City:

Astronomy

May. 02, 2019 Rise Set
Actual Time 5:36 AM MST 7:05 PM MST
Civil Twilight 5:10 AM MST 7:31 PM MST
Nautical Twilight 4:39 AM MST 8:02 PM MST
Astronomical Twilight 4:07 AM MST 8:35 PM MST
Moon 4:37 AM MST (5/2) 5:07 PM MST (5/2)
Length of Visible Light 14h 20m
Length of Day
13h 28m
Waning Crescent, 5% of the Moon is Illuminated
May 2
Waning Crescent
May 4
New
May 11
First Quarter
May 18
Full
May 26
Last Quarter

Hourly Weather History & Observations

Time (MST) Temp. Dew Point Humidity Pressure Visibility Wind Dir Wind Speed Gust Speed Precip Events Conditions
12:53 AM 63.0 °F 27.0 °F 26% 29.89 in 10.0 mi SSE 4.6 mph - N/A   Clear
1:53 AM 61.0 °F 28.0 °F 29% 29.89 in 10.0 mi South 5.8 mph - N/A   Clear
2:53 AM 60.1 °F 30.0 °F 32% 29.89 in 10.0 mi SE 6.9 mph - N/A   Clear
3:53 AM 59.0 °F 30.9 °F 35% 29.88 in 10.0 mi ESE 4.6 mph - N/A   Clear
4:53 AM 57.0 °F 30.9 °F 37% 29.88 in 10.0 mi SSE 3.5 mph - N/A   Clear
5:53 AM 55.0 °F 30.9 °F 40% 29.89 in 10.0 mi SSE 6.9 mph - N/A   Clear
6:53 AM 59.0 °F 32.0 °F 36% 29.89 in 10.0 mi SE 6.9 mph - N/A   Clear
7:53 AM 64.9 °F 34.0 °F 32% 29.89 in 10.0 mi SSE 3.5 mph - N/A   Clear
8:53 AM 73.0 °F 35.1 °F 25% 29.88 in 10.0 mi South 4.6 mph - N/A   Clear
9:53 AM 77.0 °F 34.0 °F 21% 29.88 in 10.0 mi Calm Calm - N/A   Clear
10:53 AM 81.0 °F 30.0 °F 16% 29.87 in 10.0 mi NNE 3.5 mph - N/A   Clear
11:53 AM 82.9 °F 30.0 °F 15% 29.84 in 10.0 mi Variable 4.6 mph - N/A   Clear
12:53 PM 82.9 °F 27.0 °F 13% 29.82 in 10.0 mi Calm Calm - N/A   Clear
1:53 PM 84.9 °F 24.1 °F 11% 29.81 in 10.0 mi West 8.1 mph - N/A   Clear
2:53 PM 87.1 °F 28.9 °F 12% 29.79 in 10.0 mi WNW 8.1 mph - N/A   Clear
3:53 PM 88.0 °F 25.0 °F 10% 29.76 in 10.0 mi Variable 4.6 mph - N/A   Clear
4:53 PM 86.0 °F 28.0 °F 12% 29.76 in 10.0 mi NNW 12.7 mph - N/A   Clear
5:53 PM 82.9 °F 28.0 °F 14% 29.78 in 10.0 mi NNW 11.5 mph - N/A   Clear
6:53 PM 81.0 °F 28.0 °F 14% 29.80 in 10.0 mi NW 5.8 mph - N/A   Clear
7:53 PM 79.0 °F 28.0 °F 15% 29.81 in 10.0 mi NW 3.5 mph - N/A   Clear
8:53 PM 73.9 °F 28.9 °F 19% 29.82 in 10.0 mi SW 5.8 mph - N/A   Clear
9:53 PM 73.0 °F 28.0 °F 19% 29.82 in 10.0 mi West 4.6 mph - N/A   Clear
10:53 PM 68.0 °F 25.0 °F 20% 29.82 in 10.0 mi SW 5.8 mph - N/A   Clear
11:53 PM 66.0 °F 26.1 °F 22% 29.82 in 10.0 mi SSW 4.6 mph - N/A   Clear